Погода в Павлодаре

Поиск расширенной информации на нашем сайте:

Полезная информация:

Новости сайта



02.01.2020
Опубликован Долгосрочный прогноз погоды по городам России и ближнего зарубежья на январь 2020 года.
Карты: Прогноз на январь и февраль 2020 года, Сравнение прогнозируемой аномалии приземной температуры воздуха на январь 2020 года по разным моделям.




Погода в Павлодаре - сегодня

Время (UTC), дата Ветер
(°,м/с) 
Видим.   Явления Облачность Т
(°С)
Тd
(°С)
f(%) Тe
(°С)
Pmin
(гПа)
dP
(гПа)
Po
(мм)
O2
(г/м3)
Тmin Tmax R s Состояние
почвы
12 16.04.21 300 (СЗ) 20000 м    1/1 1000 м 
[Cu hum]
+21.7 -1 22 +22  1014.4  -1.2  750  280           
15 16.04.21 320 (СЗ) 20000 м    3/3 1000 м кучево-дожд. 
[Cb cap]
+14 -0.8 36 +15  1014.4  -0.3  750  288    +23.2       
18 16.04.21 030 (СВ) 20000 м    4/3 1000 м кучево-дожд., верхняя 
[Cb cap|Ci fib]
+8.9 +4.9 76 +7  1015.3  0.7  751  292    +23.2       
21 16.04.21 020 (С) 20000 м    6/3 1000 м кучево-дожд., средняя 
[Cb cap|Ac trans]
+3.9 +1.3 83 +1  1017.8  2.1  752  299           
00 17.04.21 030 (СВ) 20000 м    3/3 1000 м кучево-дожд. 
[Cb cap]
+1.5 -1.7 79 -2  1020.5  2.6  754  302           
03 17.04.21 050 (СВ) 20000 м    3/0 средняя, верхняя 
[Ac trans|Ci fib]
+5.7 -3.8 50 +4  1023.1  2.7  756  299           
06 17.04.21 040 (СВ) 20000 м    1/1 1000 м 
[Cu med, cong]
+9.1 -7 31 +7  1023.9  1.1  757  296  +1.4         
09 17.04.21 020 (С) 20000 м    ясно 
+9.9 -6.4 31 +9  1023.5  -0.5  757  295           
12 17.04.21 060 (СВ) 20000 м    3/0 верхняя 
[Ci fib]
+10.2 -6.8 30 +10  1022.8  -0.6  756  294           
15 17.04.21 070 (В) 20000 м    1/0 верхняя 
[Ci fib]
+3.2 -4.8 56 +4  1022.7  -0.4  756  302    +11       
18 17.04.21 130 (ЮВ) 20000 м    3/0 верхняя 
[Ci fib]
+0.1 -5.5 66 +1  1022.1  -0.8  755  305    +11       
21 17.04.21 190 (Ю) 20000 м    ясно 
-0.8 -5.4 71 1020.6  -1.5  754  305           
00 18.04.21 190 (Ю) 20000 м    3/0 верхняя 
[Ci fib]
-2.7 -5.4 82 -2  1019.3  -1.5  753  307           
03 18.04.21 210 (ЮЗ) 20000 м    8/4 600 м средняя 
[Sc|Ac trans]
+6.8 -4 46 +5  1016.4  -2.2  751  296           
06 18.04.21 230 (ЮЗ) 20000 м    9/8 600 м кучево-дожд., средняя 
[Cb cap|Ac trans]
+14.5 -1.8 32 +14  1014.1  -1.9  750  287  -2.8         
09 18.04.21 280 (З) 20000 м    8/4 600 м кучево-дожд., средняя 
[Cb cap|Ac trans]
+17.4 -1.4 28 +17  1011.9  -2.1  748  284           
12 18.04.21 020 (С) 20000 м    8/5 600 м кучево-дожд., средняя 
[Cb cap|Ac trans]
+16.7 -0.7 31 +18  1009  -2.9  746  283           
15 18.04.21 170 (Ю) 2{17}  20000 м  {ливн. осадки}  6/4 600 м кучево-дожд., средняя 
[Cb cap|Ac trans]
+8.1 +5.4 83 +8  1009.2  -0.2  746  291    +18.4       
18 18.04.21 340 (С) 20000 м  {ливн. осадки}  8/8 600 м 
[Sc diur, vesp]
+7.9 +3.2 72 +6  1010.7  1.4  747  292    +18.4  0.3     
21 18.04.21 010 (С) 10-17{19}  20000 м    9/9 600 м кучево-дожд. 
[Cb cap]
-2.5 -6.2 76 -8  1015.9  4.6  751  306           
00 19.04.21 360 (С) 9{19}  20000 м    6/6 600 м кучево-дожд. 
[Cb cap]
-5.7 -10.4 69 -12  1020.6  4.5  754  311           
03 19.04.21 030 (СВ) 7{15}  20000 м    9/6 600 м кучево-дожд., средняя 
[Cb cap|Ac trans]
-4.2 -11.1 59 -9  1023.9  3.3  756  311           
06 19.04.21 010 (С) 20000 м    4/3 1000 м средняя 
[Cu med, cong|Ac trans]
-1.1 -11.9 44 -5  1024.8  757  307  -5.7         
09 19.04.21 330 (СЗ) 20000 м    3/0 верхняя 
[Ci fib]
+1.8 -16.9 23 1024.6  757  304           
12 19.04.21 040 (СВ) 20000 м    ясно 
+1.7 -17.1 23 -1  1024.5  -0.1  757  305           
Время (UTC), дата Ветер
(°,м/с) 
Видим.   Явления Облачность Т
(°С)
Тd
(°С)
f(%) Тe
(°С)
Pmin
(гПа)
dP
(гПа)
Po
(мм)
O2
(г/м3)
Тmin Tmax R s Состояние
почвы

Для получения пояснительной информации подведите курсор к названию столбца.

ПОГОДА в Павлодаре - архив

Всё, что Вы хотите узнать о погоде в Павлодаре - удобно и подробно!

Выберите нужную дату (начиная с 1 января 2019* года) и нажмите кнопку "Найти".
Будут отображены архивные сводки погоды по пункту Павлодар, начиная с указанной даты.


Отображать данные в формате CSV (для использования в таблицах Excel)


Внимание! Наш архив погоды предназначен исключительно для личного некоммерческого использования в познавательных целях. Если Вам необходимы официальные справки о состоянии погоды (для производственных, юридических, коммерческих и т.п. целей), обращайтесь в органы Росгидромета.

*Примечание: данная дата относится к архиву по метеостанциям СССР (Россия, СНГ, Балтия).
Архив по метеостанциям Зарубежной Европы и Азии (кроме Китая) хранится 10 дней, по другим регионам земного шара (Китай, Африка, Америка, Австралия, Океания) - 1 день.

Павлодар - район местоположения метеостанции


Название, широта, долгота, высота метеостанции:
Павлодар 52.1°ш. 77.1°д. 125 м над ур. моря [Казахстан]

Дополнительная информация

В oтличие oт бoльшинства пoгoдных сайтoв мы публикуем пoдрoбную метеoинфoрмацию в детальнoм прoфессиoнальнoм фoрмате.

Характеристики температуры и влажнoсти вoздуха измеряются на высoте 2 м в тени вдали oт зданий и деревьев.
Скoрoсть ветра измеряется на высoте 10 м (на урoвне рoста челoвека скoрoсть ветра ниже в 1.5-2 раза). Если метеoстанция нахoдится в гoрoде или в лесу, тo скoрoсть ветра занижена на 2-4 м/с пo сравнению с oткрытым местoм. Скoрoсть ветра над акватoриями крупных рек и oзёр, а также на вершинах хoлмoв на 2-5 м/с выше, чем в oбычных услoвиях.
Атмoсфернoе давление в разных тoчках местнoсти мoжет значительнo oтличаться oт давления на метеoстанции, в зависимoсти oт услoвий рельефа (при пoдъёме на 10 м давление пoнижается примернo на 1 мм рт.ст.).